Location: Fort Worth, Tx
(32.7431°N, 97.3695°W)
Time: 03:46:53
(UTC-05:00)

Vanguard 2 Rocket - All Passes

Search period start: 25 February 2024 00:00
Search period end: 06 March 2024 00:00
Orbit: 554 x 3310 km, 32.9° (Epoch: 24 February)

Date Brightness Start Highest point End Pass type
(mag) Time Alt. Az. Time Alt. Az. Time Alt. Az.
25 Feb - 01:07:15 10° WSW 01:12:35 12° SW 01:17:42 10° SSW visible
25 Feb - 12:46:45 10° SSE 12:50:34 16° SE 12:55:33 10° E daylight
25 Feb - 14:55:13 10° SW 15:02:36 62° SSE 15:15:57 10° ENE daylight
25 Feb - 17:07:22 10° W 17:17:48 90° N 17:35:54 10° E daylight
25 Feb - 19:21:01 10° W 19:35:12 81° SSW 19:55:36 10° ESE visible
25 Feb - 21:36:20 10° W 21:52:59 51° SSW 22:11:43 10° SE visible
25 Feb - 23:56:49 10° W 00:09:22 21° SW 00:21:23 10° S visible
26 Feb - 13:54:40 10° SW 14:00:46 43° SE 14:11:07 10° E daylight
26 Feb - 16:05:55 10° WSW 16:14:39 86° S 16:30:34 10° E daylight
26 Feb - 18:18:56 10° W 18:31:08 87° S 18:50:43 10° ESE daylight
26 Feb - 20:33:15 10° WNW 20:48:47 62° SSW 21:08:37 10° SE visible
26 Feb - 22:50:46 10° W 23:05:49 30° SW 23:21:15 10° SSE visible
27 Feb - 12:54:44 10° SSW 12:59:26 25° SE 13:06:22 10° E daylight
27 Feb - 15:04:46 10° WSW 15:12:03 75° SSE 15:25:29 10° E daylight
27 Feb - 17:17:11 10° W 17:27:30 89° N 17:45:27 10° E daylight
27 Feb - 19:30:45 10° W 19:44:37 72° SSW 20:04:42 10° ESE visible
27 Feb - 21:46:26 10° W 22:01:58 40° SW 22:19:38 10° SSE visible
28 Feb - 00:11:12 10° WSW 00:18:13 13° SW 00:25:08 10° SSW visible
28 Feb - 11:56:31 10° SSE 11:58:25 12° SE 12:00:34 10° ESE daylight
28 Feb - 14:03:57 10° SW 14:10:01 57° SSE 14:20:47 10° E daylight
28 Feb - 16:15:43 10° W 16:24:20 89° N 16:40:07 10° E daylight
28 Feb - 18:28:41 10° W 18:40:42 80° SSW 19:00:03 10° ESE daylight
28 Feb - 20:43:08 10° W 20:57:57 51° SSW 21:16:58 10° SE visible
28 Feb - 23:02:21 10° W 23:14:42 21° SW 23:27:32 10° S visible
29 Feb - 13:03:32 10° SSW 13:08:30 37° SE 13:16:26 10° E daylight
29 Feb - 15:14:29 10° WSW 15:21:40 85° S 15:35:01 10° E daylight
29 Feb - 17:26:58 10° W 17:37:09 87° S 17:54:56 10° ESE daylight
29 Feb - 19:40:32 10° W 19:53:58 61° SSW 20:13:24 10° SE visible
29 Feb - 21:57:02 10° W 22:10:58 30° SW 22:26:51 10° SSE visible
01 Mar - 12:03:46 10° S 12:07:22 20° SE 12:12:08 10° E daylight
01 Mar - 14:13:30 10° WSW 14:19:30 72° SSE 14:30:21 10° E daylight
01 Mar - 16:25:31 10° W 16:34:03 89° N 16:49:40 10° E daylight
01 Mar - 18:38:27 10° W 18:50:11 70° SSW 19:09:06 10° ESE daylight
01 Mar - 20:53:17 10° W 21:07:07 39° SSW 21:24:45 10° SSE visible
01 Mar - 23:16:28 10° WSW 23:23:46 13° SW 23:31:17 10° SSW visible
02 Mar - 13:12:46 10° SW 13:17:48 52° SSE 13:26:12 10° E daylight
02 Mar - 15:24:16 10° W 15:31:23 89° N 15:44:34 10° E daylight
02 Mar - 17:36:44 10° W 17:46:46 79° SSW 18:04:15 10° ESE daylight
02 Mar - 19:50:27 10° W 20:03:16 49° SSW 20:21:39 10° SE visible
02 Mar - 22:08:38 10° W 22:20:04 21° SW 22:32:55 10° S visible
03 Mar - 12:12:24 10° SSW 12:16:30 31° SE 12:22:25 10° E daylight
03 Mar - 14:23:11 10° WSW 14:29:08 84° S 14:39:54 10° E daylight
03 Mar - 16:35:19 10° W 16:43:44 86° S 16:59:08 10° ESE daylight
03 Mar - 18:48:15 10° W 18:59:38 58° SSW 19:17:46 10° SE daylight
03 Mar - 21:03:56 10° W 21:16:19 29° SW 21:31:47 10° SSE visible
04 Mar - 11:12:48 10° S 11:15:25 16° SE 11:18:30 10° ESE daylight
04 Mar - 13:22:17 10° WSW 13:27:18 69° SSE 13:35:49 10° E daylight
04 Mar - 15:34:05 10° W 15:41:06 89° N 15:54:07 10° E daylight
04 Mar - 17:46:31 10° W 17:56:18 68° SSW 18:13:16 10° ESE daylight
04 Mar - 20:00:39 10° W 20:12:36 37° SSW 20:29:19 10° SSE visible
04 Mar - 22:22:52 10° WSW 22:29:22 13° SW 22:36:20 10° SSW visible
05 Mar - 12:21:35 10° SW 12:25:50 46° SSE 12:32:16 10° E daylight
05 Mar - 14:32:58 10° W 14:38:51 89° N 14:49:28 10° E daylight
05 Mar - 16:45:05 10° W 16:53:21 78° SSW 17:08:27 10° ESE daylight
05 Mar - 18:58:13 10° W 19:09:03 46° SSW 19:25:56 10° SE daylight
05 Mar - 21:15:37 10° WSW 21:25:38 20° SW 21:37:38 10° S visible
